GW5842 Weather Reports


Display with metric or nautical units.
time (UTC)temp
F
wind
direction
speed
MPH
gust
MPH
rain 1hr
in
rain 24hr
in
rain mn
in
humidity
%
barometer
mb
20260504231600 78 132 0.0 0.0 0.00 0.00 0.00 86 1019.2
20260504231056 79 146 0.0 0.0 0.00 0.00 0.00 86 1019.3
20260504230552 79 132 0.0 0.0 0.00 0.00 0.00 86 1019.2
20260504230052 80 135 0.0 0.0 0.00 0.00 0.00 85 1019.1
20260504225549 80 156 0.0 1.0 0.00 0.00 0.00 84 1019.1
20260504225046 80 158 0.0 2.0 0.00 0.00 0.00 84 1019.0
20260504224542 80 157 0.0 1.0 0.00 0.00 0.00 83 1019.1
20260504224040 80 174 1.0 2.0 0.00 0.00 0.00 83 1019.1
20260504223537 81 234 1.0 2.0 0.00 0.00 0.00 83 1019.0
20260504223032 81 194 1.0 2.0 0.00 0.00 0.00 83 1018.6
20260504222529 81 226 1.0 2.0 0.00 0.00 0.00 82 1018.8
20260504222027 81 197 1.0 2.0 0.00 0.00 0.00 81 1018.7
20260504221524 82 172 0.0 2.0 0.00 0.00 0.00 81 1018.6
20260504221020 82 145 1.0 1.0 0.00 0.00 0.00 80 1018.7
20260504220517 82 180 0.0 1.0 0.00 0.00 0.00 80 1018.8
20260504220014 82 171 1.0 1.0 0.00 0.00 0.00 78 1018.6
20260504215510 82 144 1.0 5.0 0.00 0.00 0.00 79 1018.5
20260504215008 82 186 0.0 5.0 0.00 0.00 0.00 79 1018.4
20260504214504 82 172 0.0 5.0 0.00 0.00 0.00 78 1018.2
20260504214000 82 212 2.0 9.0 0.00 0.00 0.00 79 1018.4
20260504213456 82 158 1.0 3.0 0.00 0.00 0.00 79 1018.2
20260504212954 82 245 1.0 2.0 0.00 0.00 0.00 80 1018.3
20260504212450 82 126 1.0 2.0 0.00 0.00 0.00 78 1018.1
20260504211948 82 172 1.0 2.0 0.00 0.00 0.00 77 1018.1
20260504211444 82 190 1.0 2.0 0.00 0.00 0.00 79 1018.2
20260504210942 84 205 4.0 7.0 0.00 0.00 0.00 77 1018.1
20260504210438 83 198 1.0 5.0 0.00 0.00 0.00 77 1018.1
20260504205935 84 236 4.0 8.0 0.00 0.00 0.00 75 1018.1
20260504205433 83 142 3.0 3.0 0.00 0.00 0.00 76 1017.9
20260504204931 83 194 2.0 3.0 0.00 0.00 0.00 74 1018.0
20260504204429 81 231 1.0 2.0 0.00 0.00 0.00 77 1017.9
20260504203928 84 157 3.0 5.0 0.00 0.00 0.00 74 1017.9
20260504203425 83 124 0.0 2.0 0.00 0.00 0.00 76 1018.0
20260504202921 83 195 3.0 3.0 0.00 0.00 0.00 75 1018.1
20260504202417 83 200 5.0 6.0 0.00 0.00 0.00 74 1017.9
20260504201914 82 169 0.0 2.0 0.00 0.00 0.00 74 1018.2
20260504201412 85 181 3.0 5.0 0.00 0.00 0.00 73 1017.9
20260504200909 87 128 2.0 3.0 0.00 0.00 0.00 70 1018.0
20260504200406 86 200 2.0 6.0 0.00 0.00 0.00 70 1018.0
20260504195902 85 166 3.0 6.0 0.00 0.00 0.00 72 1018.0
20260504195358 84 151 1.0 3.0 0.00 0.00 0.00 71 1018.1
20260504194855 84 190 1.0 3.0 0.00 0.00 0.00 72 1018.1
20260504194350 83 136 1.0 3.0 0.00 0.00 0.00 72 1018.0
20260504193847 83 85 0.0 6.0 0.00 0.00 0.00 74 1018.2
20260504193344 85 152 3.0 7.0 0.00 0.00 0.00 72 1018.5
20260504192843 86 206 3.0 8.0 0.00 0.00 0.00 72 1018.0
20260504192340 84 231 2.0 3.0 0.00 0.00 0.00 71 1018.3
20260504191838 86 161 2.0 2.0 0.00 0.00 0.00 70 1018.3
20260504191336 86 260 1.0 9.0 0.00 0.00 0.00 71 1017.9
20260504190831 84 208 2.0 5.0 0.00 0.00 0.00 70 1018.4
20260504190327 85 162 3.0 5.0 0.00 0.00 0.00 71 1018.2
20260504185824 86 211 1.0 2.0 0.00 0.00 0.00 70 1018.2
20260504185321 84 233 2.0 6.0 0.00 0.00 0.00 72 1018.3
20260504184817 86 94 0.0 2.0 0.00 0.00 0.00 69 1018.4
20260504184313 86 140 1.0 3.0 0.00 0.00 0.00 69 1018.5
20260504183809 86 331 0.0 6.0 0.00 0.00 0.00 68 1018.4
20260504183306 84 167 1.0 3.0 0.00 0.00 0.00 68 1018.6
20260504182804 85 211 2.0 7.0 0.00 0.00 0.00 69 1018.6
20260504182301 85 79 1.0 5.0 0.00 0.00 0.00 68 1018.3
20260504181759 86 216 1.0 7.0 0.00 0.00 0.00 68 1018.7
20260504181255 83 142 0.0 2.0 0.00 0.00 0.00 71 1018.5
20260504180755 85 230 2.0 3.0 0.00 0.00 0.00 68 1018.6
20260504180253 85 172 2.0 7.0 0.00 0.00 0.00 67 1018.8
20260504175750 85 212 1.0 2.0 0.00 0.00 0.00 69 1018.9
20260504175247 86 182 1.0 3.0 0.00 0.00 0.00 70 1019.0
20260504174745 85 196 1.0 3.0 0.00 0.00 0.00 68 1018.8
20260504174243 84 128 2.0 5.0 0.00 0.00 0.00 69 1018.7
20260504173739 84 230 3.0 7.0 0.00 0.00 0.00 70 1019.2
20260504173236 86 206 3.0 7.0 0.00 0.00 0.00 68 1019.3
20260504172733 87 48 4.0 7.0 0.00 0.00 0.00 66 1019.1
20260504172229 87 178 2.0 6.0 0.00 0.00 0.00 65 1019.3
20260504171725 88 197 4.0 9.0 0.00 0.00 0.00 65 1019.2
20260504171223 86 146 2.0 9.0 0.00 0.00 0.00 65 1019.3
20260504170719 87 106 3.0 9.0 0.00 0.00 0.00 64 1019.1
20260504170217 86 221 4.0 8.0 0.00 0.00 0.00 63 1019.2
20260504160135 86 125 1.0 3.0 0.00 0.00 0.00 58 1019.7
20260504151102 84 160 1.0 5.0 0.00 0.00 0.00 63 1020.1
20260504150600 86 220 3.0 6.0 0.00 0.00 0.00 63 1020.0
20260504141026 84 163 3.0 6.0 0.00 0.00 0.00 71 1020.3
20260504140522 83 223 3.0 3.0 0.00 0.00 0.00 70 1020.1
20260504130447 80 91 2.0 3.0 0.00 0.00 0.00 71 1020.1
20260504110334 69 140 0.0 0.0 0.00 0.00 0.00 97 1019.9
20260504100251 68 140 0.0 1.0 0.00 0.00 0.00 97 1019.6
20260504081645 68 140 0.0 0.0 0.00 0.00 0.00 97 1018.6
20260504081141 68 137 0.0 0.0 0.00 0.00 0.00 97 1018.5
20260504080637 68 149 0.0 1.0 0.00 0.00 0.00 97 1018.5
20260504080134 68 130 0.0 0.0 0.00 0.00 0.00 97 1018.5
20260504050450 68 143 0.0 0.0 0.00 0.00 0.00 96 1019.9
20260504045947 68 125 0.0 1.0 0.00 0.00 0.00 96 1019.8
20260504045443 68 128 0.0 1.0 0.00 0.00 0.00 96 1019.7
20260504044939 68 142 0.0 0.0 0.00 0.00 0.00 96 1019.9
20260504044437 68 129 0.0 0.0 0.00 0.00 0.00 96 1019.9
20260504043934 68 144 0.0 0.0 0.00 0.00 0.00 96 1020.0
20260504043431 68 138 0.0 0.0 0.00 0.00 0.00 96 1020.1
20260504042929 68 123 0.0 0.0 0.00 0.00 0.00 96 1020.1
20260504042425 68 138 0.0 0.0 0.00 0.00 0.00 96 1020.2
20260504041921 68 129 0.0 0.0 0.00 0.00 0.00 96 1020.3
20260504041418 68 131 0.0 0.0 0.00 0.00 0.00 96 1020.5
20260504040914 69 134 0.0 0.0 0.00 0.00 0.00 96 1020.5
20260504040412 69 138 0.0 0.0 0.00 0.00 0.00 95 1020.3
20260504035908 69 131 0.0 0.0 0.00 0.00 0.00 95 1020.5
20260504035405 69 135 0.0 0.0 0.00 0.00 0.00 95 1020.4
20260504034902 69 116 0.0 0.0 0.00 0.00 0.00 95 1020.6
20260504034359 69 145 0.0 1.0 0.00 0.00 0.00 95 1020.7
20260504033856 69 153 0.0 1.0 0.00 0.00 0.00 95 1020.8
20260504033354 69 126 0.0 1.0 0.00 0.00 0.00 95 1020.7
20260504032850 69 129 0.0 0.0 0.00 0.00 0.00 95 1020.7
20260504032347 69 141 0.0 0.0 0.00 0.00 0.00 95 1020.9
20260504031844 69 143 0.0 0.0 0.00 0.00 0.00 95 1020.8
20260504031341 69 142 0.0 1.0 0.00 0.00 0.00 95 1020.8
20260504030837 69 127 0.0 0.0 0.00 0.00 0.00 95 1020.7
20260504030335 69 143 0.0 1.0 0.00 0.00 0.00 95 1020.9
20260504025831 69 130 0.0 0.0 0.00 0.00 0.00 95 1020.9
20260504025328 69 145 0.0 1.0 0.00 0.00 0.00 95 1020.6
20260504024825 70 117 0.0 0.0 0.00 0.00 0.00 95 1020.7
20260504024321 69 139 0.0 1.0 0.00 0.00 0.00 95 1020.5
20260504023818 70 146 0.0 0.0 0.00 0.00 0.00 95 1020.6
20260504023315 70 123 0.0 0.0 0.00 0.00 0.00 94 1020.4
20260504022811 70 144 0.0 0.0 0.00 0.00 0.00 94 1020.5
20260504022308 70 147 0.0 0.0 0.00 0.00 0.00 94 1020.5
20260504021804 70 145 0.0 1.0 0.00 0.00 0.00 94 1020.5
20260504021302 70 140 0.0 1.0 0.00 0.00 0.00 94 1020.2
20260504020758 70 130 0.0 0.0 0.00 0.00 0.00 94 1020.2
20260504020255 70 143 0.0 0.0 0.00 0.00 0.00 94 1020.3
20260504015751 71 141 0.0 1.0 0.00 0.00 0.00 94 1020.3
20260504015248 70 129 0.0 1.0 0.00 0.00 0.00 94 1020.2
20260504014743 71 130 0.0 0.0 0.00 0.00 0.00 94 1020.1
20260504014240 71 141 0.0 0.0 0.00 0.00 0.00 94 1020.3
20260504013738 71 121 0.0 0.0 0.00 0.00 0.00 93 1020.1
20260504013235 71 143 0.0 0.0 0.00 0.00 0.00 93 1020.3
20260504012732 71 137 0.0 0.0 0.00 0.00 0.00 93 1020.3
20260504012230 71 140 0.0 0.0 0.00 0.00 0.00 93 1020.2
20260504011726 71 145 0.0 1.0 0.00 0.00 0.00 92 1020.2
20260504011223 71 142 0.0 0.0 0.00 0.00 0.00 92 1020.2
20260504010719 72 130 0.0 0.0 0.00 0.00 0.00 91 1020.4
20260504010215 72 136 0.0 1.0 0.00 0.00 0.00 91 1020.2
20260504005711 72 142 0.0 0.0 0.00 0.00 0.00 91 1020.3
20260504005209 73 146 0.0 0.0 0.00 0.00 0.00 91 1020.1
20260504004707 73 148 0.0 0.0 0.00 0.00 0.00 91 1020.2
20260504004203 72 133 0.0 1.0 0.00 0.00 0.00 91 1020.1
20260504003700 72 141 0.0 1.0 0.00 0.00 0.00 92 1020.0
20260504003157 72 138 0.0 0.0 0.00 0.00 0.00 92 1020.0
20260504002653 72 131 0.0 0.0 0.00 0.00 0.00 91 1020.0
20260504002151 72 143 0.0 0.0 0.00 0.00 0.00 91 1020.0
20260504001649 72 136 0.0 0.0 0.00 0.00 0.00 91 1019.9
20260504001144 73 135 0.0 0.0 0.00 0.00 0.00 91 1019.6
20260504000642 73 139 0.0 1.0 0.00 0.00 0.00 91 1019.7
20260504000139 73 141 0.0 1.0 0.00 0.00 0.00 91 1019.7
20260503235637 73 148 0.0 1.0 0.00 0.00 0.00 90 1019.5
20260503235133 73 129 0.0 1.0 0.00 0.00 0.00 90 1019.5
20260503234632 73 149 0.0 1.0 0.00 0.00 0.00 90 1019.4
20260503234129 73 118 0.0 1.0 0.00 0.00 0.00 90 1019.4
20260503233626 73 129 0.0 1.0 0.00 0.00 0.00 90 1019.2
20260503233122 74 118 0.0 1.0 0.00 0.00 0.00 89 1019.4
20260503232619 74 125 0.0 0.0 0.00 0.00 0.00 89 1019.3
20260503232116 74 143 0.0 1.0 0.00 0.00 0.00 88 1019.2